�N����,����,�~����,�C��,���x,�C��,����,���ϕ���,�ő�u�ԕ���,�ő厞����,���˗�,�I�_���x,�n�����x,�ő啗���N��,DTYPE
"20/11/08","00:10",0.0,15.5,96.1,1010.4,286.0,0.5,0.9,276.7,0.00,14.9,15.9,"00:00:56",1
"20/11/08","00:20",0.0,15.5,96.2,1010.7,299.0,0.6,1.0,290.0,0.00,14.9,15.9,"00:10:56",1
"20/11/08","00:30",0.0,15.5,96.3,1010.9,312.4,1.1,2.0,322.9,0.00,15.0,16.1,"00:24:48",1
"20/11/08","00:40",0.2,15.4,96.3,1010.7,262.3,0.6,1.6,268.0,0.00,14.9,15.8,"00:34:00",1
"20/11/08","00:50",0.0,15.3,96.3,1010.7,312.1,0.7,1.4,316.2,0.00,14.8,16.0,"00:41:36",1
"20/11/08","01:00",0.0,15.4,96.4,1010.4,333.1,1.0,1.8,336.9,0.00,14.9,15.8,"00:56:16",1
"20/11/08","01:10",0.0,15.1,96.4,1010.7,306.7,1.0,1.7,318.1,0.00,14.6,15.9,"01:01:28",1
"20/11/08","01:20",0.0,14.9,96.5,1010.7,297.8,1.0,1.4,316.1,0.00,14.4,15.9,"01:19:28",1
"20/11/08","01:30",0.0,14.7,96.6,1010.7,280.9,1.1,1.8,248.1,0.00,14.2,15.7,"01:27:28",1
"20/11/08","01:40",0.0,14.7,96.7,1010.7,313.2,1.0,1.7,338.8,0.00,14.2,15.9,"01:38:56",1
"20/11/08","01:50",0.0,14.5,96.7,1010.9,306.2,1.1,1.8,301.9,0.00,14.0,15.6,"01:45:52",1
"20/11/08","02:00",0.0,14.3,96.9,1010.9,316.1,1.1,1.7,346.4,0.00,13.9,15.7,"01:56:48",1
"20/11/08","02:10",0.0,14.1,96.9,1010.7,308.6,1.0,1.8,337.1,0.00,13.7,15.5,"02:09:44",1
"20/11/08","02:20",0.0,13.7,97.0,1010.7,318.2,1.1,2.0,312.5,0.00,13.3,15.7,"02:16:08",1
"20/11/08","02:30",0.0,13.7,97.1,1010.9,294.6,1.2,1.8,313.3,0.00,13.3,15.7,"02:23:04",1
"20/11/08","02:40",0.0,13.5,97.2,1011.2,332.4,1.1,2.0,315.1,0.00,13.1,15.5,"02:35:36",1
"20/11/08","02:50",0.0,13.2,97.3,1010.9,318.6,1.1,1.7,320.1,0.00,12.8,15.3,"02:46:56",1
"20/11/08","03:00",0.0,13.3,97.4,1010.9,311.7,1.5,2.7,324.4,0.00,12.9,15.4,"02:54:40",1
"20/11/08","03:10",0.0,13.4,97.5,1010.7,324.1,1.7,2.4,330.5,0.00,13.1,15.4,"03:08:48",1
"20/11/08","03:20",0.0,13.4,97.5,1010.9,322.9,1.6,2.4,334.7,0.00,13.1,15.2,"03:14:40",1
"20/11/08","03:30",0.0,13.5,97.6,1010.9,335.3,1.6,2.4,333.7,0.00,13.2,15.3,"03:26:24",1
"20/11/08","03:40",0.0,13.7,97.6,1010.9,331.0,1.7,3.3,347.0,0.00,13.4,15.3,"03:35:44",1
"20/11/08","03:50",0.0,13.8,97.6,1010.7,332.0,2.0,3.4,324.8,0.00,13.5,15.3,"03:46:32",1
"20/11/08","04:00",0.0,13.6,97.7,1010.7,325.9,2.0,3.1,326.8,0.00,13.3,15.0,"03:53:44",1
"20/11/08","04:10",0.0,13.6,97.7,1010.7,329.3,2.0,3.6,343.1,0.00,13.3,15.4,"04:04:24",1
"20/11/08","04:20",0.0,13.4,97.8,1010.7,330.1,1.7,2.9,346.2,0.00,13.1,15.2,"04:11:12",1
"20/11/08","04:30",0.0,13.1,97.8,1010.9,302.7,0.8,1.9,320.6,0.00,12.8,15.0,"04:22:24",1
"20/11/08","04:40",0.0,12.7,97.9,1010.9,296.9,0.5,1.2,330.7,0.00,12.4,15.0,"04:31:44",1
"20/11/08","04:50",0.0,12.3,98.0,1010.9,289.4,0.6,1.1,324.3,0.00,12.0,15.0,"04:47:58",1
"20/11/08","05:00",0.0,12.5,97.6,1010.9,306.2,0.8,1.6,313.3,0.00,12.2,15.1,"04:51:48",1
"20/11/08","05:10",0.0,12.0,98.1,1010.7,294.3,0.6,1.2,311.5,0.00,11.7,15.0,"05:08:10",1
"20/11/08","05:20",0.0,12.0,97.7,1010.7,314.0,0.6,1.4,303.5,0.00,11.7,15.0,"05:19:46",1
"20/11/08","05:30",0.0,11.5,98.3,1010.7,312.8,1.1,1.6,315.5,0.00,11.3,14.7,"05:20:08",1
"20/11/08","05:40",0.0,12.0,98.0,1010.9,317.3,1.5,2.4,319.5,0.00,11.7,14.9,"05:37:46",1
"20/11/08","05:50",0.0,12.4,97.7,1011.2,281.9,1.1,1.8,298.8,0.00,12.1,14.8,"05:43:18",1
"20/11/08","06:00",0.0,12.5,98.2,1010.9,287.3,1.5,3.2,303.8,0.00,12.3,14.6,"05:57:30",1
"20/11/08","06:10",0.0,12.6,97.8,1010.9,283.7,1.5,2.4,311.4,0.00,12.3,14.6,"06:04:12",1
"20/11/08","06:20",0.0,12.3,98.2,1011.2,274.2,0.7,1.2,275.1,0.00,12.1,14.6,"06:10:16",1
"20/11/08","06:30",0.0,11.9,97.8,1010.9,327.7,0.8,1.9,324.4,0.00,11.6,14.6,"06:25:14",1
"20/11/08","06:40",0.0,11.4,98.4,1010.9,308.2,1.1,1.7,334.5,0.00,11.2,14.5,"06:31:12",1
"20/11/08","06:50",0.0,11.5,98.1,1010.9,321.5,1.1,1.7,327.0,0.00,11.3,14.6,"06:45:52",1
"20/11/08","07:00",0.0,11.6,98.2,1010.9,313.7,1.1,1.6,335.3,0.00,11.4,14.5,"06:56:32",1
"20/11/08","07:10",0.0,11.7,98.0,1010.9,300.4,0.7,1.1,341.8,0.00,11.4,14.5,"07:00:32",1
"20/11/08","07:20",0.0,12.0,98.2,1011.4,310.9,0.8,2.5,325.7,0.00,11.8,14.4,"07:17:38",1
"20/11/08","07:30",0.0,13.2,97.9,1011.6,322.4,1.8,4.1,328.4,0.00,12.9,14.4,"07:21:56",1
"20/11/08","07:40",0.0,13.3,98.3,1011.6,319.8,1.6,2.9,325.3,0.00,13.1,14.6,"07:33:28",1
"20/11/08","07:50",0.0,13.4,97.8,1011.4,324.8,1.2,1.9,323.1,0.00,13.1,14.7,"07:41:44",1
"20/11/08","08:00",0.0,13.6,98.4,1011.6,336.4,1.1,2.0,330.7,0.04,13.4,14.3,"07:56:08",1
"20/11/08","08:10",0.0,14.1,97.9,1011.2,317.6,1.7,2.8,307.8,0.07,13.8,14.7,"08:07:16",1
"20/11/08","08:20",0.0,14.4,98.3,1011.4,330.9,2.3,4.4,328.7,0.10,14.2,14.8,"08:16:00",1
"20/11/08","08:30",0.0,15.1,97.9,1011.4,316.5,1.6,3.7,337.8,0.12,14.8,14.8,"08:23:04",1
"20/11/08","08:40",0.0,15.4,98.2,1011.4,329.7,1.1,2.5,327.0,0.15,15.2,14.9,"08:33:28",1
"20/11/08","08:50",0.0,16.1,97.4,1011.4,328.6,0.5,1.1,15.4,0.18,15.7,15.0,"08:42:16",1
"20/11/08","09:00",0.0,16.1,97.3,1011.4,238.6,0.8,1.7,207.8,0.20,15.7,15.2,"08:54:16",1
"20/11/08","09:10",0.0,16.6,97.4,1011.4,247.0,0.6,1.9,243.2,0.22,16.2,15.1,"09:00:08",1
"20/11/08","09:20",0.0,16.3,96.4,1010.9,227.9,0.6,1.2,187.2,0.24,15.8,15.3,"09:17:04",1
"20/11/08","09:30",0.0,17.5,97.0,1011.2,287.8,0.6,1.2,139.3,0.26,17.1,15.5,"09:23:20",1
"20/11/08","09:40",0.0,17.2,96.8,1011.2,215.8,0.6,1.3,188.3,0.28,16.7,15.7,"09:31:04",1
"20/11/08","09:50",0.0,17.9,94.6,1010.9,220.9,0.5,1.6,218.3,0.31,17.1,15.8,"09:49:52",1
"20/11/08","10:00",0.0,17.9,96.0,1011.4,63.2,0.6,2.0,124.6,0.33,17.3,16.0,"09:50:56",1
"20/11/08","10:10",0.0,18.4,95.2,1011.2,322.9,0.7,2.9,338.6,0.35,17.7,16.0,"10:00:32",1
"20/11/08","10:20",0.0,17.6,93.3,1011.2,250.4,1.5,3.2,233.7,0.33,16.5,16.2,"10:12:56",1
"20/11/08","10:30",0.0,17.6,91.7,1011.9,245.5,2.2,4.3,232.9,0.34,16.3,16.5,"10:21:04",1
"20/11/08","10:40",0.0,18.4,87.7,1012.1,263.6,2.0,4.7,238.2,0.30,16.4,16.5,"10:31:12",1
"20/11/08","10:50",0.0,18.9,80.0,1011.6,278.3,1.8,3.9,258.7,0.28,15.4,16.6,"10:43:04",1
"20/11/08","11:00",0.0,19.6,73.4,1011.4,280.4,1.7,4.1,326.5,0.29,14.8,16.8,"10:51:28",1
"20/11/08","11:10",0.0,19.5,71.5,1011.2,287.9,1.8,4.5,329.0,0.29,14.3,16.7,"11:08:24",1
"20/11/08","11:20",0.0,19.9,70.4,1010.7,271.7,2.0,3.9,253.2,0.36,14.4,17.0,"11:17:04",1
"20/11/08","11:30",0.0,20.1,69.4,1010.7,279.0,2.0,5.0,252.7,0.41,14.4,17.0,"11:26:48",1
"20/11/08","11:40",0.0,20.4,69.1,1010.7,274.1,1.8,5.0,226.6,0.47,14.6,17.1,"11:32:08",1
"20/11/08","11:50",0.0,19.7,68.7,1010.7,270.6,2.1,4.0,206.3,0.26,13.8,17.2,"11:43:04",1
"20/11/08","12:00",0.0,20.2,69.0,1010.0,279.0,1.7,3.1,294.7,0.43,14.4,17.3,"11:59:12",1
"20/11/08","12:10",0.0,20.2,66.8,1009.5,265.0,1.8,5.5,228.1,0.40,13.9,17.5,"12:09:44",1
"20/11/08","12:20",0.0,20.5,66.6,1009.5,266.2,1.6,3.9,230.4,0.40,14.1,17.8,"12:10:16",1
"20/11/08","12:30",0.0,21.0,64.8,1009.0,258.6,1.7,4.2,234.1,0.47,14.2,17.9,"12:26:00",1
"20/11/08","12:40",0.0,20.9,65.7,1008.6,251.0,1.8,4.9,225.6,0.38,14.3,17.8,"12:37:52",1
"20/11/08","12:50",0.0,20.6,64.6,1008.8,280.9,1.6,4.2,335.0,0.22,13.7,18.1,"12:43:20",1
"20/11/08","13:00",0.0,20.2,65.2,1008.6,301.6,1.2,2.8,233.5,0.11,13.5,17.9,"12:51:28",1
"20/11/08","13:10",0.0,19.9,64.5,1008.6,305.7,2.1,4.0,327.6,0.25,13.1,18.0,"13:05:04",1
"20/11/08","13:20",0.0,20.4,62.7,1008.6,313.2,2.2,5.7,339.2,0.35,13.1,17.9,"13:17:28",1
"20/11/08","13:30",0.0,20.8,59.5,1008.6,272.9,1.6,4.3,292.2,0.36,12.7,18.1,"13:28:48",1
"20/11/08","13:40",0.0,21.0,57.7,1008.1,279.8,1.8,6.0,345.4,0.37,12.4,18.3,"13:38:24",1
"20/11/08","13:50",0.0,21.1,58.3,1008.1,311.8,2.1,4.8,337.6,0.33,12.6,18.3,"13:43:52",1
"20/11/08","14:00",0.0,21.5,57.6,1007.8,310.6,1.7,3.7,345.4,0.38,12.8,18.4,"13:50:16",1
"20/11/08","14:10",0.0,20.5,59.0,1008.3,337.0,2.3,5.4,343.9,0.16,12.3,18.3,"14:01:44",1
"20/11/08","14:20",0.0,19.1,63.5,1008.6,349.4,2.6,5.4,344.1,0.09,12.1,18.4,"14:12:24",1
"20/11/08","14:30",0.0,18.8,65.0,1008.6,1.3,1.8,3.5,359.4,0.08,12.1,18.2,"14:26:40",1
"20/11/08","14:40",0.0,18.7,64.5,1008.6,356.0,2.1,5.4,347.7,0.12,11.9,18.2,"14:36:16",1
"20/11/08","14:50",0.0,18.9,63.7,1008.3,330.1,2.0,3.6,304.1,0.14,11.9,18.2,"14:42:24",1
"20/11/08","15:00",0.0,19.3,62.9,1008.6,326.7,1.6,2.9,324.3,0.13,12.1,18.0,"14:54:16",1
"20/11/08","15:10",0.2,19.7,62.1,1008.3,321.7,1.8,4.0,336.5,0.20,12.3,18.0,"15:06:24",1
"20/11/08","15:20",0.0,19.9,61.9,1008.6,300.7,1.5,2.7,342.1,0.15,12.4,18.0,"15:17:44",1
"20/11/08","15:30",0.0,19.6,60.3,1008.8,313.2,1.6,3.5,326.3,0.11,11.7,18.2,"15:23:28",1
"20/11/08","15:40",0.0,19.0,56.8,1008.8,313.2,2.1,4.9,334.7,0.08,10.3,17.9,"15:34:56",1
"20/11/08","15:50",0.0,18.5,58.5,1009.0,328.7,1.3,3.3,343.4,0.04,10.3,18.1,"15:46:48",1
"20/11/08","16:00",0.0,18.4,59.3,1009.3,324.9,1.6,4.0,340.5,0.05,10.4,18.2,"15:53:04",1
"20/11/08","16:10",0.0,18.2,61.2,1009.0,335.2,1.3,2.6,333.9,0.03,10.7,18.0,"16:01:36",1
"20/11/08","16:20",0.0,18.0,61.6,1009.3,331.7,1.7,3.2,327.2,0.03,10.6,17.7,"16:11:20",1
"20/11/08","16:30",0.0,17.7,62.8,1009.7,305.0,0.8,2.0,347.2,0.01,10.6,17.5,"16:20:48",1
"20/11/08","16:40",0.0,17.3,64.9,1009.5,302.9,1.1,2.4,326.6,0.00,10.7,17.6,"16:36:32",1
"20/11/08","16:50",0.0,16.7,66.9,1009.5,327.3,1.1,1.9,343.9,0.00,10.6,17.5,"16:45:36",1
"20/11/08","17:00",0.0,16.2,68.9,1009.5,308.0,0.7,1.1,314.7,0.00,10.5,17.4,"16:50:40",1
"20/11/08","17:10",0.0,15.7,70.7,1009.7,303.3,1.2,2.0,318.2,0.00,10.4,17.5,"17:07:36",1
"20/11/08","17:20",0.0,15.2,72.4,1009.5,325.4,1.2,2.4,324.4,0.00,10.3,17.2,"17:11:28",1
"20/11/08","17:30",0.0,14.6,73.6,1009.3,304.2,0.8,1.8,331.5,0.00,10.0,17.1,"17:20:24",1
"20/11/08","17:40",0.0,14.3,75.8,1009.5,329.0,0.8,1.9,353.9,0.00,10.1,17.0,"17:38:44",1
"20/11/08","17:50",0.0,13.9,78.6,1009.7,341.0,1.0,1.9,338.8,0.00,10.3,16.9,"17:46:12",1
"20/11/08","18:00",0.0,13.6,80.6,1009.7,321.8,1.0,1.7,297.0,0.00,10.4,16.7,"17:55:36",1
"20/11/08","18:10",0.0,13.3,81.8,1009.7,300.9,1.0,2.0,318.7,0.00,10.3,16.6,"18:06:14",1
"20/11/08","18:20",0.0,13.1,82.8,1010.2,310.5,1.0,2.4,355.4,0.00,10.3,16.7,"18:13:30",1
"20/11/08","18:30",0.0,12.8,83.8,1010.0,314.0,0.8,2.1,341.5,0.00,10.2,16.5,"18:21:56",1
"20/11/08","18:40",0.0,12.5,84.7,1010.4,310.8,1.3,2.4,328.3,0.00,10.0,16.5,"18:31:58",1
"20/11/08","18:50",0.0,12.5,85.1,1010.4,142.7,0.6,2.1,329.2,0.00,10.1,16.6,"18:40:10",1
"20/11/08","19:00",0.0,12.2,85.4,1010.7,286.1,0.7,1.9,334.6,0.00,9.9,16.2,"18:59:50",1
"20/11/08","19:10",0.0,11.9,85.7,1010.7,302.7,0.7,2.0,326.1,0.00,9.6,16.0,"19:00:10",1
"20/11/08","19:20",0.0,11.6,86.1,1010.9,321.4,1.5,2.0,319.1,0.00,9.4,16.1,"19:17:52",1
"20/11/08","19:30",0.0,11.4,86.5,1010.9,322.1,1.3,1.7,312.6,0.00,9.3,15.8,"19:26:56",1
"20/11/08","19:40",0.0,11.4,86.9,1010.9,326.3,1.3,1.6,315.8,0.00,9.3,15.9,"19:30:46",1
"20/11/08","19:50",0.0,11.5,87.3,1010.7,330.9,1.5,2.5,344.4,0.00,9.5,15.7,"19:48:44",1
"20/11/08","20:00",0.0,11.7,87.5,1010.7,335.3,1.5,2.2,333.2,0.00,9.7,15.7,"19:57:54",1
"20/11/08","20:10",0.0,11.5,87.6,1010.7,304.6,1.3,2.1,336.1,0.00,9.6,15.7,"20:00:36",1
"20/11/08","20:20",0.0,11.0,87.8,1010.7,312.0,0.8,1.4,303.2,0.00,9.1,15.5,"20:11:54",1
"20/11/08","20:30",0.0,10.9,88.2,1011.2,322.2,1.3,2.1,343.8,0.00,9.1,15.4,"20:23:04",1
"20/11/08","20:40",0.0,10.6,88.4,1010.7,299.8,1.0,1.7,316.6,0.00,8.8,15.5,"20:34:56",1
"20/11/08","20:50",0.0,10.4,88.8,1010.9,297.6,0.8,1.3,321.4,0.00,8.7,15.3,"20:41:12",1
"20/11/08","21:00",0.0,10.2,89.0,1010.7,310.7,1.0,1.4,313.7,0.00,8.5,15.0,"20:53:12",1
"20/11/08","21:10",0.0,9.9,89.2,1010.4,301.4,1.2,1.9,322.4,0.00,8.2,15.2,"21:06:32",1
"20/11/08","21:20",0.0,9.8,89.4,1010.7,293.8,1.2,1.6,312.8,0.00,8.2,15.2,"21:14:40",1
"20/11/08","21:30",0.0,9.8,89.7,1010.4,301.8,0.7,1.6,298.3,0.00,8.2,14.7,"21:29:44",1
"20/11/08","21:40",0.0,9.5,89.8,1010.2,298.8,1.1,1.9,310.5,0.00,8.0,15.0,"21:36:56",1
"20/11/08","21:50",0.0,9.4,90.2,1010.9,303.8,1.6,2.6,315.7,0.00,7.9,14.8,"21:48:24",1
"20/11/08","22:00",0.0,9.6,90.5,1010.4,316.0,1.6,2.1,308.6,0.00,8.2,14.7,"21:55:12",1
"20/11/08","22:10",0.0,9.6,90.8,1010.7,316.9,1.6,2.2,322.5,0.00,8.2,14.6,"22:01:04",1
"20/11/08","22:20",0.0,9.4,91.2,1010.4,299.5,1.3,2.0,313.3,0.00,8.1,14.7,"22:17:04",1
"20/11/08","22:30",0.0,9.8,91.7,1010.7,327.7,1.6,2.1,317.8,0.00,8.6,14.5,"22:26:24",1
"20/11/08","22:40",0.0,10.2,91.9,1010.2,338.0,1.3,2.1,343.0,0.00,9.0,14.6,"22:35:20",1
"20/11/08","22:50",0.0,10.2,92.2,1010.2,320.5,1.3,2.1,315.2,0.00,9.0,14.7,"22:41:12",1
"20/11/08","23:00",0.0,10.0,92.3,1010.4,297.2,0.7,1.6,280.4,0.00,8.8,14.5,"22:57:20",1
"20/11/08","23:10",0.0,9.8,92.7,1010.7,310.2,1.3,1.8,322.2,0.00,8.7,14.6,"23:02:00",1
"20/11/08","23:20",0.0,9.9,93.1,1010.7,300.5,1.1,2.2,354.5,0.00,8.9,14.4,"23:15:20",1
"20/11/08","23:30",0.0,10.1,93.2,1010.4,302.6,1.1,1.9,328.7,0.00,9.1,14.4,"23:29:04",1
"20/11/08","23:40",0.0,10.2,93.4,1010.7,313.8,1.5,1.9,318.2,0.00,9.2,14.4,"23:34:24",1
"20/11/08","23:50",0.0,10.0,93.5,1010.4,300.0,1.3,1.8,327.7,0.00,9.0,14.5,"23:41:12",1
"20/11/08","24:00",0.0,9.8,93.7,1010.9,314.1,1.2,2.1,316.1,0.00,8.9,14.4,"23:50:16",1
